| time (UTC) | temp C | wind direction | speed KPH | gust KPH | rain 1hr cm | rain 24hr cm | rain mn cm | humidity % | barometer mb |
| 20260905201807 | 15 | 74 | 1.6 | 6.4 | 0.00 | 0.03 | 0.00 | 74 | 1018.9 |
| 20260905201222 | 15 | 68 | 1.6 | 6.4 | 0.00 | 0.03 | 0.00 | 73 | 1018.9 |
| 20260905200808 | 15 | 103 | 3.2 | 6.4 | 0.00 | 0.03 | 0.00 | 73 | 1019.0 |
| 20260905200736 | 15 | 103 | 3.2 | 6.4 | 0.00 | 0.03 | 0.00 | 73 | 1019.0 |
| 20260905200223 | 16 | 126 | 4.8 | 6.4 | 0.00 | 0.03 | 0.00 | 73 | 1019.0 |
| 20260905195730 | 16 | 65 | 1.6 | 3.2 | 0.00 | 0.03 | 0.00 | 73 | 1019.0 |
| 20260905195238 | 16 | 65 | 1.6 | 3.2 | 0.00 | 0.03 | 0.00 | 73 | 1019.0 |
| 20260905194724 | 16 | 119 | 1.6 | 3.2 | 0.00 | 0.03 | 0.00 | 72 | 1019.0 |
| 20260905194230 | 16 | 88 | 0.0 | 4.8 | 0.00 | 0.03 | 0.00 | 71 | 1019.0 |
| 20260905193736 | 16 | 79 | 3.2 | 4.8 | 0.00 | 0.03 | 0.00 | 70 | 1019.1 |
| 20260905193223 | 16 | 70 | 1.6 | 3.2 | 0.00 | 0.03 | 0.00 | 69 | 1019.0 |
| 20260905192730 | 16 | 108 | 1.6 | 3.2 | 0.00 | 0.03 | 0.00 | 68 | 1019.2 |
| 20260905192258 | 16 | 76 | 0.0 | 3.2 | 0.00 | 0.03 | 0.00 | 70 | 1019.2 |
| 20260905192226 | 16 | 76 | 0.0 | 3.2 | 0.00 | 0.03 | 0.00 | 70 | 1019.2 |
| 20260905191732 | 16 | 185 | 0.0 | 3.2 | 0.00 | 0.03 | 0.00 | 70 | 1019.2 |
| 20260905191239 | 16 | 117 | 0.0 | 3.2 | 0.00 | 0.03 | 0.00 | 69 | 1019.3 |
| 20260905190726 | 16 | 77 | 0.0 | 3.2 | 0.00 | 0.03 | 0.00 | 70 | 1019.2 |
| 20260905190253 | 16 | 93 | 1.6 | 3.2 | 0.00 | 0.03 | 0.00 | 70 | 1019.3 |
| 20260905190221 | 16 | 93 | 1.6 | 3.2 | 0.00 | 0.03 | 0.00 | 70 | 1019.3 |
| 20260905185728 | 16 | 331 | 0.0 | 8.0 | 0.00 | 0.03 | 0.00 | 69 | 1019.2 |
| 20260905185236 | 16 | 103 | 3.2 | 6.4 | 0.00 | 0.03 | 0.00 | 71 | 1019.2 |
| 20260905184722 | 16 | 205 | 3.2 | 6.4 | 0.00 | 0.03 | 0.00 | 72 | 1019.3 |
| 20260905184229 | 16 | 80 | 1.6 | 4.8 | 0.00 | 0.03 | 0.00 | 72 | 1019.3 |
| 20260905183756 | 16 | 123 | 1.6 | 6.4 | 0.00 | 0.03 | 0.00 | 74 | 1019.4 |
| 20260905183252 | 16 | 163 | 0.0 | 6.4 | 0.00 | 0.03 | 0.00 | 73 | 1019.4 |
| 20260905183220 | 16 | 163 | 0.0 | 6.4 | 0.00 | 0.03 | 0.00 | 73 | 1019.4 |
| 20260905182731 | 15 | 85 | 1.6 | 6.4 | 0.00 | 0.03 | 0.00 | 73 | 1019.4 |
| 20260905182238 | 15 | 74 | 1.6 | 6.4 | 0.00 | 0.03 | 0.00 | 72 | 1019.5 |
| 20260905181724 | 15 | 109 | 4.8 | 6.4 | 0.00 | 0.03 | 0.00 | 72 | 1019.5 |
| 20260905181231 | 15 | 166 | 0.0 | 3.2 | 0.00 | 0.03 | 0.00 | 73 | 1019.6 |
| 20260905180738 | 15 | 128 | 0.0 | 3.2 | 0.00 | 0.03 | 0.00 | 73 | 1019.5 |
| 20260905180225 | 15 | 126 | 0.0 | 4.8 | 0.00 | 0.03 | 0.00 | 73 | 1019.6 |
| 20260905175732 | 15 | 92 | 3.2 | 4.8 | 0.00 | 0.03 | 0.00 | 74 | 1019.6 |
| 20260905175240 | 15 | 82 | 1.6 | 3.2 | 0.00 | 0.03 | 0.00 | 74 | 1019.6 |
| 20260905174726 | 15 | 98 | 1.6 | 4.8 | 0.00 | 0.03 | 0.00 | 74 | 1019.6 |
| 20260905174233 | 15 | 101 | 3.2 | 4.8 | 0.00 | 0.03 | 0.00 | 74 | 1019.6 |
| 20260905173724 | 15 | 95 | 1.6 | 4.8 | 0.00 | 0.03 | 0.00 | 75 | 1019.5 |
| 20260905173231 | 15 | 60 | 1.6 | 4.8 | 0.00 | 0.03 | 0.00 | 74 | 1019.5 |
| 20260905172758 | 15 | 106 | 1.6 | 4.8 | 0.00 | 0.03 | 0.00 | 74 | 1019.4 |
| 20260905172234 | 14 | 81 | 1.6 | 4.8 | 0.00 | 0.03 | 0.00 | 75 | 1019.4 |
| 20260905171720 | 14 | 108 | 1.6 | 4.8 | 0.00 | 0.05 | 0.00 | 75 | 1019.4 |
| 20260905171227 | 14 | 105 | 4.8 | 4.8 | 0.00 | 0.05 | 0.00 | 74 | 1019.3 |
| 20260905170734 | 14 | 144 | 1.6 | 6.4 | 0.00 | 0.05 | 0.00 | 74 | 1019.4 |
| 20260905170221 | 15 | 107 | 3.2 | 6.4 | 0.00 | 0.05 | 0.00 | 75 | 1019.4 |
| 20260905165728 | 15 | 117 | 3.2 | 6.4 | 0.00 | 0.05 | 0.00 | 76 | 1019.4 |
| 20260905165237 | 15 | 104 | 3.2 | 9.7 | 0.00 | 0.05 | 0.00 | 75 | 1019.4 |
| 20260905164803 | 15 | 118 | 3.2 | 8.0 | 0.00 | 0.05 | 0.00 | 76 | 1019.2 |
| 20260905164259 | 15 | 77 | 4.8 | 9.7 | 0.00 | 0.05 | 0.00 | 74 | 1019.3 |
| 20260905163734 | 15 | 109 | 3.2 | 6.4 | 0.00 | 0.05 | 0.00 | 74 | 1019.3 |
| 20260905163300 | 15 | 84 | 1.6 | 3.2 | 0.00 | 0.05 | 0.00 | 74 | 1019.3 |
| 20260905162755 | 15 | 65 | 1.6 | 6.4 | 0.00 | 0.05 | 0.00 | 74 | 1019.2 |
| 20260905162253 | 15 | 101 | 3.2 | 6.4 | 0.00 | 0.05 | 0.00 | 73 | 1019.3 |
| 20260905161731 | 15 | 105 | 3.2 | 8.0 | 0.00 | 0.05 | 0.00 | 73 | 1019.1 |
| 20260905161238 | 15 | 128 | 1.6 | 8.0 | 0.00 | 0.05 | 0.00 | 73 | 1019.1 |
| 20260905160725 | 15 | 130 | 1.6 | 6.4 | 0.00 | 0.05 | 0.00 | 73 | 1019.0 |
| 20260905160232 | 15 | 122 | 3.2 | 6.4 | 0.00 | 0.05 | 0.00 | 73 | 1019.1 |
| 20260905155739 | 15 | 113 | 1.6 | 4.8 | 0.00 | 0.05 | 0.00 | 74 | 1019.0 |
| 20260905155306 | 15 | 118 | 1.6 | 3.2 | 0.00 | 0.05 | 0.00 | 75 | 1019.1 |
| 20260905155235 | 15 | 118 | 1.6 | 3.2 | 0.00 | 0.05 | 0.00 | 75 | 1019.1 |
| 20260905154739 | 15 | 227 | 1.6 | 3.2 | 0.00 | 0.05 | 0.00 | 75 | 1019.1 |
| 20260905154226 | 15 | 138 | 1.6 | 3.2 | 0.00 | 0.05 | 0.00 | 75 | 1019.1 |
| 20260905153733 | 15 | 155 | 1.6 | 3.2 | 0.00 | 0.05 | 0.00 | 77 | 1019.0 |
| 20260905153259 | 14 | 11 | 0.0 | 3.2 | 0.00 | 0.05 | 0.00 | 81 | 1019.1 |
| 20260905152754 | 13 | 80 | 1.6 | 3.2 | 0.00 | 0.05 | 0.00 | 82 | 1019.0 |
| 20260905152722 | 13 | 80 | 1.6 | 3.2 | 0.00 | 0.05 | 0.00 | 82 | 1019.0 |
| 20260905152230 | 13 | 84 | 1.6 | 4.8 | 0.00 | 0.05 | 0.00 | 85 | 1019.0 |
| 20260905151756 | 13 | 94 | 1.6 | 4.8 | 0.00 | 0.05 | 0.00 | 86 | 1019.1 |
| 20260905151231 | 12 | 101 | 0.0 | 3.2 | 0.00 | 0.05 | 0.00 | 89 | 1019.0 |
| 20260905150722 | 12 | 75 | 1.6 | 3.2 | 0.00 | 0.05 | 0.00 | 91 | 1019.0 |
| 20260905150229 | 11 | 71 | 0.0 | 3.2 | 0.00 | 0.05 | 0.00 | 94 | 1018.8 |
| 20260905145735 | 11 | 97 | 0.0 | 0.0 | 0.00 | 0.05 | 0.00 | 95 | 1018.8 |
| 20260905145223 | 10 | 97 | 0.0 | 0.0 | 0.00 | 0.05 | 0.00 | 95 | 1018.8 |
| 20260905144810 | 10 | 96 | 0.0 | 0.0 | 0.00 | 0.05 | 0.00 | 95 | 1018.8 |
| 20260905144305 | 10 | 96 | 0.0 | 0.0 | 0.00 | 0.05 | 0.00 | 94 | 1018.7 |
| 20260905143800 | 10 | 96 | 0.0 | 0.0 | 0.00 | 0.05 | 0.00 | 94 | 1018.6 |
| 20260905143256 | 10 | 97 | 0.0 | 0.0 | 0.00 | 0.05 | 0.00 | 94 | 1018.6 |
| 20260905142811 | 10 | 96 | 0.0 | 0.0 | 0.00 | 0.05 | 0.00 | 94 | 1018.5 |
| 20260905142227 | 10 | 97 | 0.0 | 0.0 | 0.00 | 0.05 | 0.00 | 94 | 1018.5 |
| 20260905141733 | 10 | 97 | 0.0 | 0.0 | 0.00 | 0.08 | 0.00 | 94 | 1018.5 |
| 20260905141300 | 10 | 96 | 0.0 | 3.2 | 0.00 | 0.08 | 0.00 | 94 | 1018.4 |
| 20260905140755 | 10 | 97 | 0.0 | 3.2 | 0.00 | 0.08 | 0.00 | 94 | 1018.4 |
| 20260905140311 | 10 | 84 | 0.0 | 0.0 | 0.00 | 0.08 | 0.00 | 94 | 1018.4 |
| 20260905135807 | 10 | 84 | 0.0 | 0.0 | 0.00 | 0.08 | 0.00 | 94 | 1018.4 |
| 20260905135223 | 10 | 84 | 0.0 | 0.0 | 0.00 | 0.08 | 0.00 | 94 | 1018.4 |
| 20260905134729 | 9 | 84 | 0.0 | 0.0 | 0.00 | 0.08 | 0.00 | 94 | 1018.2 |
| 20260905134256 | 9 | 84 | 0.0 | 0.0 | 0.00 | 0.08 | 0.00 | 94 | 1018.3 |
| 20260905134224 | 9 | 84 | 0.0 | 0.0 | 0.00 | 0.08 | 0.00 | 94 | 1018.3 |
| 20260905133731 | 9 | 84 | 0.0 | 0.0 | 0.00 | 0.08 | 0.00 | 94 | 1018.3 |
| 20260905133238 | 9 | 84 | 0.0 | 0.0 | 0.00 | 0.08 | 0.00 | 94 | 1018.2 |
| 20260905132725 | 9 | 84 | 0.0 | 0.0 | 0.00 | 0.08 | 0.00 | 95 | 1018.3 |
| 20260905132233 | 9 | 84 | 0.0 | 0.0 | 0.00 | 0.08 | 0.00 | 95 | 1018.2 |
| 20260905131723 | 9 | 84 | 0.0 | 0.0 | 0.00 | 0.08 | 0.00 | 95 | 1018.3 |
| 20260905131231 | 9 | 84 | 0.0 | 0.0 | 0.00 | 0.08 | 0.00 | 95 | 1018.2 |
| 20260905130735 | 9 | 84 | 0.0 | 0.0 | 0.00 | 0.08 | 0.00 | 95 | 1018.3 |
| 20260905130302 | 9 | 84 | 0.0 | 0.0 | 0.00 | 0.08 | 0.00 | 95 | 1018.3 |
| 20260905125737 | 9 | 84 | 0.0 | 0.0 | 0.00 | 0.08 | 0.00 | 94 | 1018.3 |
| 20260905125225 | 9 | 84 | 0.0 | 0.0 | 0.00 | 0.08 | 0.00 | 94 | 1018.1 |
| 20260905124731 | 9 | 84 | 0.0 | 0.0 | 0.00 | 0.08 | 0.00 | 94 | 1018.1 |
| 20260905124259 | 9 | 84 | 0.0 | 0.0 | 0.00 | 0.08 | 0.00 | 94 | 1018.1 |
| 20260905123734 | 9 | 84 | 0.0 | 0.0 | 0.00 | 0.08 | 0.00 | 94 | 1018.2 |
| 20260905123221 | 9 | 84 | 0.0 | 0.0 | 0.00 | 0.08 | 0.00 | 94 | 1018.2 |
| 20260905122808 | 9 | 84 | 0.0 | 0.0 | 0.00 | 0.08 | 0.00 | 94 | 1018.2 |
| 20260905122736 | 9 | 84 | 0.0 | 0.0 | 0.00 | 0.08 | 0.00 | 94 | 1018.2 |
| 20260905122224 | 9 | 84 | 0.0 | 0.0 | 0.00 | 0.08 | 0.00 | 94 | 1018.1 |
| 20260905121810 | 8 | 84 | 0.0 | 0.0 | 0.00 | 0.08 | 0.00 | 94 | 1018.1 |
| 20260905121738 | 8 | 84 | 0.0 | 0.0 | 0.00 | 0.08 | 0.00 | 94 | 1018.1 |
| 20260905121225 | 9 | 84 | 0.0 | 0.0 | 0.00 | 0.08 | 0.00 | 94 | 1018.2 |
| 20260905120752 | 9 | 84 | 0.0 | 0.0 | 0.00 | 0.08 | 0.00 | 94 | 1018.1 |
| 20260905120720 | 9 | 84 | 0.0 | 0.0 | 0.00 | 0.08 | 0.00 | 94 | 1018.1 |
| 20260905120231 | 9 | 84 | 0.0 | 0.0 | 0.00 | 0.08 | 0.00 | 94 | 1018.1 |
| 20260905115738 | 9 | 84 | 0.0 | 0.0 | 0.00 | 0.08 | 0.00 | 94 | 1018.1 |
| 20260905115227 | 9 | 84 | 0.0 | 0.0 | 0.00 | 0.08 | 0.00 | 94 | 1018.1 |
| 20260905114753 | 9 | 84 | 0.0 | 0.0 | 0.00 | 0.08 | 0.00 | 94 | 1018.2 |
| 20260905114721 | 9 | 84 | 0.0 | 0.0 | 0.00 | 0.08 | 0.00 | 94 | 1018.2 |
| 20260905114228 | 9 | 84 | 0.0 | 0.0 | 0.00 | 0.08 | 0.00 | 94 | 1018.1 |
| 20260905113734 | 9 | 84 | 0.0 | 0.0 | 0.00 | 0.08 | 0.00 | 94 | 1018.1 |
| 20260905113301 | 9 | 84 | 0.0 | 0.0 | 0.00 | 0.08 | 0.00 | 94 | 1018.0 |
| 20260905112757 | 8 | 84 | 0.0 | 0.0 | 0.00 | 0.08 | 0.00 | 94 | 1018.0 |
| 20260905112253 | 8 | 84 | 0.0 | 0.0 | 0.00 | 0.08 | 0.00 | 94 | 1018.0 |
| 20260905111807 | 8 | 84 | 0.0 | 0.0 | 0.00 | 0.10 | 0.00 | 94 | 1018.0 |
| 20260905111304 | 8 | 84 | 0.0 | 0.0 | 0.00 | 0.10 | 0.00 | 93 | 1017.9 |
| 20260905110739 | 8 | 84 | 0.0 | 0.0 | 0.00 | 0.10 | 0.00 | 93 | 1017.9 |
| 20260905110226 | 8 | 84 | 0.0 | 0.0 | 0.00 | 0.10 | 0.00 | 93 | 1017.9 |
| 20260905105733 | 8 | 84 | 0.0 | 0.0 | 0.00 | 0.10 | 0.00 | 93 | 1017.9 |
| 20260905105301 | 9 | 84 | 0.0 | 0.0 | 0.00 | 0.10 | 0.00 | 93 | 1017.7 |
| 20260905104735 | 9 | 84 | 0.0 | 0.0 | 0.00 | 0.10 | 0.00 | 93 | 1017.8 |
| 20260905104222 | 9 | 84 | 0.0 | 0.0 | 0.00 | 0.10 | 0.00 | 93 | 1017.9 |
| 20260905103729 | 9 | 84 | 0.0 | 0.0 | 0.00 | 0.10 | 0.00 | 94 | 1017.8 |
| 20260905103220 | 9 | 84 | 0.0 | 0.0 | 0.00 | 0.10 | 0.00 | 93 | 1017.8 |
| 20260905102727 | 9 | 84 | 0.0 | 0.0 | 0.00 | 0.10 | 0.00 | 93 | 1017.8 |
| 20260905102235 | 9 | 84 | 0.0 | 0.0 | 0.00 | 0.10 | 0.00 | 93 | 1017.7 |
| 20260905101800 | 9 | 84 | 0.0 | 0.0 | 0.00 | 0.10 | 0.00 | 93 | 1017.7 |
| 20260905101235 | 9 | 84 | 0.0 | 0.0 | 0.00 | 0.10 | 0.00 | 93 | 1017.7 |
| 20260905100802 | 9 | 84 | 0.0 | 0.0 | 0.00 | 0.10 | 0.00 | 93 | 1017.7 |
| 20260905100731 | 9 | 84 | 0.0 | 0.0 | 0.00 | 0.10 | 0.00 | 93 | 1017.7 |
| 20260905100257 | 9 | 84 | 0.0 | 0.0 | 0.00 | 0.10 | 0.00 | 93 | 1017.6 |
| 20260905100225 | 9 | 84 | 0.0 | 0.0 | 0.00 | 0.10 | 0.00 | 93 | 1017.6 |
| 20260905095732 | 9 | 84 | 0.0 | 0.0 | 0.00 | 0.10 | 0.00 | 93 | 1017.6 |
| 20260905095300 | 9 | 84 | 0.0 | 0.0 | 0.00 | 0.10 | 0.00 | 93 | 1017.8 |
| 20260905094734 | 9 | 84 | 0.0 | 0.0 | 0.00 | 0.10 | 0.00 | 93 | 1017.6 |
| 20260905094301 | 10 | 84 | 0.0 | 0.0 | 0.00 | 0.10 | 0.00 | 93 | 1017.6 |
| 20260905094229 | 10 | 84 | 0.0 | 0.0 | 0.00 | 0.10 | 0.00 | 93 | 1017.6 |
| 20260905093736 | 10 | 84 | 0.0 | 0.0 | 0.00 | 0.10 | 0.00 | 92 | 1017.7 |
| 20260905093304 | 10 | 84 | 0.0 | 0.0 | 0.00 | 0.10 | 0.00 | 93 | 1017.8 |
| 20260905092759 | 10 | 84 | 0.0 | 0.0 | 0.00 | 0.10 | 0.00 | 93 | 1017.7 |
| 20260905092255 | 10 | 84 | 0.0 | 0.0 | 0.00 | 0.10 | 0.00 | 93 | 1017.7 |
| 20260905092223 | 10 | 84 | 0.0 | 0.0 | 0.00 | 0.10 | 0.00 | 93 | 1017.7 |
| 20260905091729 | 10 | 84 | 0.0 | 0.0 | 0.00 | 0.10 | 0.00 | 93 | 1017.6 |
| 20260905091256 | 10 | 84 | 0.0 | 0.0 | 0.00 | 0.10 | 0.00 | 93 | 1017.7 |
| 20260905090731 | 10 | 84 | 0.0 | 0.0 | 0.00 | 0.10 | 0.00 | 92 | 1017.7 |
| 20260905090238 | 10 | 84 | 0.0 | 0.0 | 0.00 | 0.10 | 0.00 | 92 | 1017.7 |
| 20260905085806 | 10 | 84 | 0.0 | 0.0 | 0.00 | 0.10 | 0.00 | 92 | 1017.6 |
| 20260905085222 | 10 | 84 | 0.0 | 0.0 | 0.00 | 0.10 | 0.00 | 92 | 1017.6 |
| 20260905084732 | 10 | 84 | 0.0 | 0.0 | 0.00 | 0.10 | 0.00 | 92 | 1017.7 |
| 20260905084240 | 10 | 84 | 0.0 | 0.0 | 0.00 | 0.10 | 0.00 | 92 | 1017.7 |
| 20260905083726 | 10 | 84 | 0.0 | 0.0 | 0.00 | 0.10 | 0.00 | 92 | 1017.7 |
| 20260905083226 | 10 | 84 | 0.0 | 0.0 | 0.00 | 0.10 | 0.00 | 92 | 1017.7 |
| 20260905082733 | 10 | 84 | 0.0 | 0.0 | 0.00 | 0.10 | 0.00 | 92 | 1017.6 |
| 20260905082301 | 10 | 84 | 0.0 | 0.0 | 0.00 | 0.10 | 0.00 | 91 | 1017.5 |
| 20260905081734 | 10 | 84 | 0.0 | 1.6 | 0.00 | 0.13 | 0.10 | 91 | 1017.5 |
| 20260905081241 | 10 | 84 | 0.0 | 1.6 | 0.00 | 0.13 | 0.10 | 91 | 1017.5 |
| 20260905080804 | 10 | 84 | 0.0 | 3.2 | 0.00 | 0.13 | 0.10 | 91 | 1017.5 |
| 20260905080235 | 11 | 84 | 0.0 | 3.2 | 0.00 | 0.13 | 0.10 | 91 | 1017.4 |
| 20260905075721 | 11 | 84 | 0.0 | 0.0 | 0.00 | 0.13 | 0.10 | 92 | 1017.4 |
| 20260905075230 | 11 | 84 | 0.0 | 0.0 | 0.00 | 0.13 | 0.10 | 91 | 1017.5 |
| 20260905074736 | 11 | 84 | 0.0 | 0.0 | 0.00 | 0.13 | 0.10 | 91 | 1017.5 |
| 20260905074302 | 11 | 84 | 0.0 | 0.0 | 0.00 | 0.13 | 0.10 | 91 | 1017.5 |
| 20260905074230 | 11 | 84 | 0.0 | 0.0 | 0.00 | 0.13 | 0.10 | 91 | 1017.5 |
| 20260905073720 | 11 | 84 | 0.0 | 0.0 | 0.00 | 0.13 | 0.10 | 90 | 1017.5 |
| 20260905073307 | 11 | 84 | 0.0 | 0.0 | 0.00 | 0.13 | 0.10 | 90 | 1017.5 |
| 20260905072722 | 11 | 84 | 0.0 | 0.0 | 0.00 | 0.13 | 0.10 | 90 | 1017.5 |
| 20260905072231 | 11 | 84 | 0.0 | 0.0 | 0.00 | 0.13 | 0.10 | 90 | 1017.5 |
| 20260905071736 | 11 | 84 | 0.0 | 0.0 | 0.00 | 0.13 | 0.10 | 90 | 1017.5 |
| 20260905071304 | 11 | 84 | 0.0 | 0.0 | 0.00 | 0.13 | 0.10 | 90 | 1017.4 |
| 20260905070739 | 11 | 84 | 0.0 | 0.0 | 0.00 | 0.13 | 0.10 | 90 | 1017.4 |
| 20260905070307 | 11 | 84 | 0.0 | 3.2 | 0.00 | 0.13 | 0.10 | 89 | 1017.4 |
| 20260905065722 | 11 | 84 | 0.0 | 3.2 | 0.00 | 0.13 | 0.10 | 89 | 1017.2 |
| 20260905065230 | 12 | 109 | 0.0 | 0.0 | 0.00 | 0.13 | 0.10 | 89 | 1017.2 |
| 20260905064757 | 12 | 109 | 0.0 | 0.0 | 0.00 | 0.13 | 0.10 | 89 | 1017.1 |
| 20260905064232 | 12 | 109 | 0.0 | 0.0 | 0.00 | 0.13 | 0.10 | 89 | 1017.0 |
| 20260905063759 | 12 | 109 | 0.0 | 0.0 | 0.00 | 0.13 | 0.10 | 89 | 1017.0 |
| 20260905063254 | 12 | 109 | 0.0 | 0.0 | 0.00 | 0.13 | 0.10 | 89 | 1016.9 |
| 20260905062728 | 12 | 109 | 0.0 | 0.0 | 0.00 | 0.13 | 0.10 | 89 | 1017.0 |
| 20260905062236 | 12 | 109 | 0.0 | 0.0 | 0.00 | 0.13 | 0.10 | 89 | 1016.9 |
| 20260905061726 | 12 | 109 | 0.0 | 0.0 | 0.00 | 0.15 | 0.10 | 88 | 1017.0 |
| 20260905061254 | 12 | 109 | 0.0 | 0.0 | 0.00 | 0.15 | 0.10 | 88 | 1016.9 |
| 20260905060806 | 12 | 109 | 0.0 | 0.0 | 0.00 | 0.15 | 0.10 | 88 | 1016.8 |
| 20260905060225 | 12 | 109 | 0.0 | 0.0 | 0.00 | 0.15 | 0.10 | 88 | 1016.9 |
| 20260905055752 | 12 | 109 | 0.0 | 0.0 | 0.00 | 0.15 | 0.10 | 88 | 1016.9 |
| 20260905055229 | 12 | 109 | 0.0 | 0.0 | 0.00 | 0.15 | 0.10 | 87 | 1016.9 |
| 20260905054735 | 12 | 109 | 0.0 | 0.0 | 0.00 | 0.15 | 0.10 | 87 | 1016.8 |
| 20260905054302 | 12 | 109 | 0.0 | 0.0 | 0.00 | 0.15 | 0.10 | 87 | 1016.8 |
| 20260905053737 | 12 | 109 | 0.0 | 0.0 | 0.00 | 0.15 | 0.10 | 87 | 1016.8 |
| 20260905053224 | 12 | 109 | 0.0 | 0.0 | 0.00 | 0.15 | 0.10 | 87 | 1016.8 |
| 20260905052731 | 12 | 109 | 0.0 | 0.0 | 0.00 | 0.15 | 0.10 | 86 | 1016.8 |
| 20260905052258 | 13 | 109 | 0.0 | 0.0 | 0.00 | 0.15 | 0.10 | 86 | 1016.9 |
| 20260905051733 | 13 | 109 | 0.0 | 0.0 | 0.00 | 0.18 | 0.10 | 86 | 1016.9 |
| 20260905051239 | 13 | 109 | 0.0 | 0.0 | 0.00 | 0.18 | 0.10 | 86 | 1017.0 |
| 20260905050721 | 13 | 109 | 0.0 | 0.0 | 0.00 | 0.18 | 0.10 | 85 | 1017.0 |
| 20260905050309 | 13 | 109 | 0.0 | 0.0 | 0.00 | 0.18 | 0.10 | 85 | 1017.0 |
| 20260905045804 | 13 | 109 | 0.0 | 0.0 | 0.00 | 0.18 | 0.10 | 85 | 1017.0 |
| 20260905045732 | 13 | 109 | 0.0 | 0.0 | 0.00 | 0.18 | 0.10 | 85 | 1017.0 |
| 20260905045240 | 13 | 109 | 0.0 | 0.0 | 0.00 | 0.18 | 0.10 | 85 | 1017.0 |
| 20260905044730 | 13 | 109 | 0.0 | 0.0 | 0.00 | 0.18 | 0.10 | 85 | 1017.0 |
| 20260905044237 | 13 | 109 | 0.0 | 0.0 | 0.00 | 0.18 | 0.10 | 85 | 1017.7 |
| 20260905043725 | 13 | 109 | 0.0 | 0.0 | 0.00 | 0.18 | 0.10 | 85 | 1017.0 |
| 20260905043229 | 13 | 109 | 0.0 | 0.0 | 0.00 | 0.18 | 0.10 | 84 | 1017.0 |
| 20260905042736 | 13 | 109 | 0.0 | 0.0 | 0.00 | 0.18 | 0.10 | 84 | 1016.9 |
| 20260905042224 | 13 | 109 | 0.0 | 0.0 | 0.00 | 0.18 | 0.10 | 84 | 1016.9 |
| 20260905041730 | 13 | 109 | 0.0 | 0.0 | 0.00 | 0.20 | 0.10 | 83 | 1017.0 |
| 20260905041257 | 13 | 109 | 0.0 | 0.0 | 0.00 | 0.20 | 0.10 | 83 | 1016.9 |
| 20260905041225 | 13 | 109 | 0.0 | 0.0 | 0.00 | 0.20 | 0.10 | 83 | 1016.9 |
| 20260905040752 | 13 | 109 | 0.0 | 0.0 | 0.00 | 0.20 | 0.10 | 83 | 1016.9 |
| 20260905040720 | 13 | 109 | 0.0 | 0.0 | 0.00 | 0.20 | 0.10 | 83 | 1016.9 |
| 20260905040307 | 13 | 109 | 0.0 | 0.0 | 0.00 | 0.20 | 0.10 | 83 | 1016.9 |
| 20260905035803 | 13 | 109 | 0.0 | 0.0 | 0.00 | 0.20 | 0.10 | 83 | 1016.9 |
| 20260905035239 | 13 | 109 | 0.0 | 0.0 | 0.00 | 0.20 | 0.10 | 82 | 1016.8 |
| 20260905034725 | 14 | 109 | 0.0 | 0.0 | 0.00 | 0.20 | 0.10 | 82 | 1016.7 |
| 20260905034252 | 14 | 109 | 0.0 | 0.0 | 0.00 | 0.20 | 0.10 | 81 | 1016.7 |
| 20260905033727 | 14 | 109 | 0.0 | 0.0 | 0.00 | 0.20 | 0.10 | 81 | 1016.7 |
| 20260905033234 | 14 | 109 | 0.0 | 0.0 | 0.00 | 0.20 | 0.10 | 81 | 1016.7 |
| 20260905032726 | 14 | 109 | 0.0 | 0.0 | 0.00 | 0.20 | 0.10 | 80 | 1016.6 |
| 20260905032233 | 14 | 109 | 0.0 | 0.0 | 0.00 | 0.20 | 0.10 | 80 | 1016.5 |
| 20260905031739 | 14 | 109 | 0.0 | 0.0 | 0.00 | 0.25 | 0.10 | 79 | 1016.5 |
| 20260905031227 | 15 | 109 | 0.0 | 0.0 | 0.00 | 0.25 | 0.10 | 78 | 1016.5 |
| 20260905030731 | 15 | 109 | 0.0 | 3.2 | 0.00 | 0.25 | 0.10 | 78 | 1016.5 |
| 20260905030238 | 15 | 109 | 0.0 | 3.2 | 0.00 | 0.25 | 0.10 | 78 | 1016.4 |
| 20260905025725 | 15 | 109 | 0.0 | 1.6 | 0.00 | 0.25 | 0.10 | 77 | 1016.4 |
| 20260905025233 | 15 | 109 | 0.0 | 1.6 | 0.00 | 0.25 | 0.10 | 76 | 1016.4 |
| 20260905024739 | 15 | 109 | 0.0 | 0.0 | 0.00 | 0.25 | 0.10 | 76 | 1016.4 |
| 20260905024225 | 15 | 109 | 0.0 | 0.0 | 0.00 | 0.25 | 0.10 | 76 | 1016.4 |
| 20260905023727 | 15 | 109 | 0.0 | 0.0 | 0.00 | 0.25 | 0.10 | 75 | 1016.3 |
| 20260905023234 | 15 | 109 | 0.0 | 3.2 | 0.00 | 0.25 | 0.10 | 75 | 1016.4 |
| 20260905022721 | 15 | 109 | 0.0 | 3.2 | 0.00 | 0.25 | 0.10 | 75 | 1016.2 |
| 20260905022311 | 16 | 109 | 0.0 | 3.2 | 0.00 | 0.25 | 0.10 | 74 | 1016.2 |
| 20260905021805 | 16 | 109 | 0.0 | 3.2 | 0.00 | 0.33 | 0.10 | 74 | 1016.1 |
| 20260905021733 | 16 | 109 | 0.0 | 3.2 | 0.00 | 0.33 | 0.10 | 74 | 1016.1 |
| 20260905020736 | 16 | 109 | 0.0 | 3.2 | 0.00 | 0.33 | 0.10 | 72 | 1016.2 |
| 20260905020243 | 16 | 109 | 0.0 | 3.2 | 0.00 | 0.33 | 0.10 | 72 | 1016.2 |
| 20260905015725 | 16 | 98 | 0.0 | 1.6 | 0.00 | 0.33 | 0.10 | 71 | 1016.3 |
| 20260905015233 | 16 | 98 | 1.6 | 3.2 | 0.00 | 0.33 | 0.10 | 70 | 1016.4 |
| 20260905014739 | 16 | 98 | 0.0 | 3.2 | 0.00 | 0.33 | 0.10 | 70 | 1016.3 |
| 20260905014226 | 16 | 101 | 0.0 | 3.2 | 0.00 | 0.33 | 0.10 | 70 | 1016.3 |
| 20260905013733 | 16 | 96 | 1.6 | 3.2 | 0.00 | 0.33 | 0.10 | 70 | 1016.3 |
| 20260905013224 | 16 | 118 | 1.6 | 3.2 | 0.00 | 0.33 | 0.10 | 70 | 1016.3 |
| 20260905012753 | 16 | 79 | 0.0 | 6.4 | 0.00 | 0.33 | 0.10 | 70 | 1016.3 |
| 20260905012229 | 16 | 103 | 1.6 | 6.4 | 0.00 | 0.33 | 0.10 | 69 | 1016.3 |
| 20260905011755 | 17 | 76 | 3.2 | 8.0 | 0.00 | 0.38 | 0.10 | 68 | 1016.1 |
| 20260905011230 | 17 | 81 | 4.8 | 9.7 | 0.00 | 0.38 | 0.10 | 68 | 1016.0 |
| 20260905010737 | 17 | 35 | 3.2 | 9.7 | 0.00 | 0.38 | 0.10 | 64 | 1016.0 |
| 20260905010304 | 17 | 88 | 4.8 | 9.7 | 0.00 | 0.38 | 0.10 | 63 | 1015.8 |
| 20260905010232 | 17 | 88 | 4.8 | 9.7 | 0.00 | 0.38 | 0.10 | 63 | 1015.8 |
| 20260905005739 | 17 | 83 | 3.2 | 9.7 | 0.00 | 0.38 | 0.10 | 62 | 1015.7 |
| 20260905005227 | 17 | 94 | 6.4 | 11.3 | 0.00 | 0.38 | 0.10 | 60 | 1015.7 |
| 20260905004733 | 18 | 80 | 3.2 | 4.8 | 0.00 | 0.38 | 0.10 | 61 | 1015.6 |
| 20260905004220 | 18 | 89 | 1.6 | 11.3 | 0.00 | 0.38 | 0.10 | 61 | 1015.6 |
| 20260905003807 | 18 | 66 | 4.8 | 11.3 | 0.00 | 0.38 | 0.10 | 61 | 1015.6 |
| 20260905003237 | 18 | 39 | 0.0 | 4.8 | 0.00 | 0.38 | 0.10 | 65 | 1015.6 |
| 20260905002804 | 18 | 93 | 1.6 | 4.8 | 0.00 | 0.38 | 0.10 | 65 | 1015.6 |
| 20260905002732 | 18 | 93 | 1.6 | 4.8 | 0.00 | 0.38 | 0.10 | 65 | 1015.6 |
| 20260905002221 | 18 | 55 | 1.6 | 4.8 | 0.00 | 0.38 | 0.10 | 66 | 1015.6 |
| 20260905001731 | 18 | 44 | 3.2 | 6.4 | 0.00 | 0.38 | 0.10 | 64 | 1015.6 |
| 20260905001238 | 18 | 93 | 4.8 | 6.4 | 0.00 | 0.38 | 0.10 | 60 | 1015.5 |
| 20260905000725 | 18 | 78 | 3.2 | 9.7 | 0.00 | 0.38 | 0.10 | 60 | 1015.7 |
| 20260905000233 | 18 | 36 | 3.2 | 9.7 | 0.00 | 0.38 | 0.10 | 58 | 1015.6 |
| 20260904235739 | 19 | 81 | 3.2 | 11.3 | 0.00 | 0.38 | 0.10 | 59 | 1015.5 |
| 20260904235307 | 19 | 88 | 1.6 | 12.9 | 0.00 | 0.38 | 0.10 | 60 | 1015.5 |
| 20260904234738 | 20 | 107 | 4.8 | 12.9 | 0.00 | 0.38 | 0.10 | 57 | 1015.6 |
| 20260904234225 | 20 | 97 | 1.6 | 3.2 | 0.03 | 0.38 | 0.10 | 54 | 1015.6 |
| 20260904233732 | 20 | 329 | 0.0 | 3.2 | 0.03 | 0.38 | 0.10 | 54 | 1015.6 |
| 20260904233239 | 20 | 303 | 0.0 | 3.2 | 0.03 | 0.38 | 0.10 | 53 | 1015.5 |
| 20260904232726 | 20 | 197 | 0.0 | 3.2 | 0.03 | 0.38 | 0.10 | 53 | 1015.5 |
| 20260904232238 | 20 | 284 | 0.0 | 3.2 | 0.03 | 0.38 | 0.10 | 55 | 1015.4 |
| 20260904231725 | 20 | 282 | 1.6 | 4.8 | 0.03 | 0.38 | 0.10 | 54 | 1015.4 |
| 20260904231252 | 20 | 42 | 1.6 | 4.8 | 0.03 | 0.38 | 0.10 | 53 | 1015.3 |
| 20260904230727 | 20 | 355 | 1.6 | 3.2 | 0.03 | 0.38 | 0.10 | 54 | 1015.2 |
| 20260904230234 | 20 | 146 | 0.0 | 3.2 | 0.03 | 0.38 | 0.10 | 56 | 1015.2 |
| 20260904225801 | 20 | 163 | 0.0 | 3.2 | 0.03 | 0.38 | 0.10 | 56 | 1015.2 |
| 20260904225238 | 20 | 173 | 1.6 | 4.8 | 0.03 | 0.38 | 0.10 | 57 | 1015.2 |
| 20260904224805 | 20 | 272 | 1.6 | 4.8 | 0.03 | 0.38 | 0.10 | 55 | 1015.2 |
| 20260904224301 | 20 | 304 | 0.0 | 6.4 | 0.00 | 0.36 | 0.08 | 56 | 1015.0 |
| 20260904223756 | 20 | 315 | 1.6 | 6.4 | 0.00 | 0.36 | 0.08 | 55 | 1014.9 |
| 20260904223231 | 20 | 270 | 0.0 | 6.4 | 0.00 | 0.36 | 0.08 | 56 | 1014.9 |
| 20260904222758 | 20 | 323 | 1.6 | 4.8 | 0.00 | 0.36 | 0.08 | 56 | 1014.9 |
| 20260904222726 | 20 | 323 | 1.6 | 4.8 | 0.00 | 0.36 | 0.08 | 56 | 1014.9 |
| 20260904222235 | 20 | 136 | 1.6 | 3.2 | 0.00 | 0.36 | 0.08 | 55 | 1014.9 |
| 20260904221738 | 20 | 325 | 0.0 | 4.8 | 0.00 | 0.43 | 0.08 | 58 | 1015.0 |
| 20260904221225 | 20 | 314 | 1.6 | 4.8 | 0.00 | 0.43 | 0.08 | 58 | 1015.0 |
| 20260904220752 | 20 | 315 | 3.2 | 4.8 | 0.00 | 0.43 | 0.08 | 58 | 1014.9 |
| 20260904220227 | 20 | 248 | 3.2 | 4.8 | 0.00 | 0.43 | 0.08 | 57 | 1015.0 |
| 20260904215754 | 20 | 293 | 3.2 | 8.0 | 0.00 | 0.43 | 0.08 | 55 | 1015.1 |
| 20260904215722 | 20 | 293 | 3.2 | 8.0 | 0.00 | 0.43 | 0.08 | 55 | 1015.1 |
| 20260904215229 | 20 | 309 | 3.2 | 8.0 | 0.00 | 0.43 | 0.08 | 53 | 1015.0 |
| 20260904214739 | 20 | 244 | 1.6 | 11.3 | 0.00 | 0.43 | 0.08 | 58 | 1014.9 |
| 20260904214307 | 20 | 286 | 4.8 | 11.3 | 0.00 | 0.43 | 0.08 | 55 | 1014.9 |
| 20260904213722 | 21 | 287 | 4.8 | 6.4 | 0.00 | 0.43 | 0.08 | 54 | 1014.9 |
| 20260904213310 | 21 | 312 | 3.2 | 6.4 | 0.00 | 0.43 | 0.08 | 53 | 1014.9 |
| 20260904212725 | 20 | 23 | 1.6 | 6.4 | 0.00 | 0.43 | 0.08 | 56 | 1014.7 |
| 20260904212253 | 20 | 314 | 3.2 | 6.4 | 0.00 | 0.43 | 0.08 | 56 | 1014.8 |
| 20260904211807 | 20 | 156 | 3.2 | 9.7 | 0.00 | 0.43 | 0.08 | 56 | 1014.8 |
| 20260904211735 | 20 | 156 | 3.2 | 9.7 | 0.00 | 0.43 | 0.08 | 56 | 1014.8 |
| 20260904211303 | 20 | 328 | 4.8 | 9.7 | 0.00 | 0.43 | 0.08 | 56 | 1014.7 |
| 20260904210758 | 20 | 257 | 1.6 | 6.4 | 0.00 | 0.43 | 0.08 | 57 | 1014.7 |
| 20260904210726 | 20 | 257 | 1.6 | 6.4 | 0.00 | 0.43 | 0.08 | 57 | 1014.7 |
| 20260904210232 | 20 | 262 | 3.2 | 6.4 | 0.00 | 0.43 | 0.08 | 57 | 1014.7 |
| 20260904205739 | 20 | 74 | 1.6 | 8.0 | 0.00 | 0.43 | 0.08 | 59 | 1014.7 |
| 20260904205227 | 20 | 350 | 3.2 | 8.0 | 0.00 | 0.43 | 0.08 | 58 | 1014.7 |
| 20260904204731 | 19 | 131 | 1.6 | 11.3 | 0.00 | 0.43 | 0.08 | 59 | 1014.7 |
| 20260904204230 | 19 | 249 | 6.4 | 11.3 | 0.00 | 0.43 | 0.08 | 58 | 1014.9 |
| 20260904203736 | 19 | 244 | 1.6 | 11.3 | 0.00 | 0.43 | 0.08 | 59 | 1014.8 |
| 20260904203223 | 19 | 127 | 1.6 | 11.3 | 0.00 | 0.43 | 0.08 | 59 | 1014.8 |
| 20260904202730 | 20 | 278 | 1.6 | 6.4 | 0.00 | 0.43 | 0.08 | 62 | 1014.8 |
| 20260904202259 | 19 | 170 | 0.0 | 4.8 | 0.00 | 0.43 | 0.08 | 63 | 1014.9 |